Location: Henham
(51.9333°N, 0.2500°E)
Time: 12:48:27
(UTC+00:00)

NOSS 3-2 (C) - Pass Details

Date: 23 October 2019
Orbit: 818 x 1394 km, 63.4° (Epoch: 06 November)

Event Time Altitude Azimuth Distance (km) Brightness Sun altitude
Rises 18:19:25 0° 196° (SSW) 3,406 6.6 -14.6°
Reaches altitude 10° 18:21:53 10° 190° (S) 2,520 5.8 -15.0°
Maximum altitude 18:27:20 43° 120° (ESE) 1,306 3.8 -15.8°
Enters shadow 18:31:43 18° 59° (ENE) 2,250 4.9 -16.5°
